Погода в Читрале

Пакистан     35°51′03″N   71°46′55″E
темп.,
°C
ветер,
м/с
пор.,
м/с
влажн.,
%
обл.,
%
осадки,
мм/ч
давл.,
гПа
погр.,
м
22 января, сб
сб2223:00−11ссз3367100 0.0 102330
02:00−9с3374100 0.1 101946
05:00−9с3383100 0.3 101861
08:00−8с3482100 0.3 101890
11:00−6с4475100 0.8 1016332
14:00−5ссв3376100 0.5 1012369
17:00−6с2385100 0.8 101268
20:00−7с2287100 0.3 101434
23 января, вс
вс2323:00−8с2381100 0.4 101618
02:00−8ссз337394 0.0 101620
05:00−10ссз336885 0.0 101725
08:00−10ссз336888 0.0 101941
11:00−5ссв336164 0.0 1015286
14:00−4ссв116729 0.0 1012301
17:00−7з01809 0.1 101410
20:00−10сз327653 0.0 102115
24 января, пн
пн2423:00−10ссз337246 0.1 102220
02:00−11ссз33675 0.0 102419
05:00−12ссз33633 0.0 102429
08:00−12ссз34600 0.0 102653
11:00−6ссв44560 0.0 1021291
14:00−4св11602 0.0 1017318
17:00−8ссз22771 0.0 102010
20:00−11ссз33674 0.0 102620
25 января, вт
вт2523:00−12ссз33624 0.0 102832
02:00−12ссз34594 0.0 102942
05:00−13ссз44560 0.0 102944
08:00−13ссз44550 0.0 103065
11:00−7ссв44490 0.0 1025286
14:00−6ссв33541 0.0 1020309
17:00−8ссз22700 0.0 102216
20:00−12ссз33580 0.0 102840
26 января, ср
ср2623:00−13ссз44520 0.0 103156
02:00−14ссз44470 0.0 103264
05:00−15ссз45470 0.0 103267
08:00−14ссз46490 0.0 103294
11:00−8ссв55490 0.0 1025332
14:00−6ссв44480 0.0 1020430
17:00−9с44610 0.0 102240
20:00−14ссз55510 0.0 103273